Location: Weatherford
(35.5260°N, 98.7070°W)
Time: 10:29:33
(UTC-05:00)

Amateur Radio Satellites - All Passes

Search period start: 25 May 2015 09:59
Search period end: 26 May 2015 09:59
Location: Weatherford, 35.5260°N, 98.7070°W

Satellite Date Start Highest point End Downlink Frequencies (MHz)
Time Altitude Azimuth
ANTELSAT 25 May 10:04:26 10:04:55 10° 66° (ENE) 10:05:44 437.575/2403.000
CUBEBUG 2 25 May 10:08:20 10:10:07 13° 89° (E) 10:12:08 437.445
Cosmos 2504 25 May 10:28:14 10:35:53 40° 90° (E) 10:43:13 435.465 / 435.565
CANX-2 25 May 10:29:20 10:33:31 63° 284° (WNW) 10:37:39 2200.000
CUTE 1.7 + AOD 2 25 May 10:33:12 10:37:22 64° 284° (WNW) 10:41:31 437.475
Oscar 11 25 May 10:34:00 10:37:42 28° 96° (E) 10:41:28 145.826/435.025
DELFI C3 25 May 10:34:53 10:37:47 20° 94° (E) 10:40:49 145.870
TIGRISAT 25 May 10:34:54 10:38:28 22° 70° (ENE) 10:42:08 435.000
CINEMA 3 25 May 10:38:13 10:42:57 64° 101° (E) 10:47:24 145.822/145.860
DOVE 4 25 May 10:45:57 10:50:56 51° 286° (WNW) 10:55:37 437.250
PCSat 25 May 10:48:05 10:52:39 28° 54° (NE) 10:57:17 145.827
RS-15 25 May 10:51:30 11:02:21 69° 304° (WNW) 11:13:27 29.354- 29.394
UNISAT 6 25 May 10:53:40 10:57:57 37° 73° (ENE) 11:02:16 437.425
UWE-3 25 May 10:57:57 11:02:03 38° 97° (E) 11:06:03 435.000/436.395/437.385
SEEDS 25 May 10:59:07 11:03:01 37° 286° (WNW) 11:06:51 437.485
BRITE-PL 25 May 11:02:17 11:06:06 18° 294° (WNW) 11:09:37 437.365/2234.400
PHONESAT 2.4 25 May 11:10:23 11:12:35 16° 216° (SW) 11:14:43 2401.200-2431.200
BUGSAT 1 25 May 11:11:59 11:14:19 15° 68° (ENE) 11:16:51 437.445
FUNcube-1 25 May 11:13:10 11:17:17 44° 98° (E) 11:21:19 145.935
GOMX 1 25 May 11:14:36 11:18:27 20° 293° (WNW) 11:21:59 467.674
COMPASS 1 25 May 11:15:40 11:19:20 30° 287° (WNW) 11:22:55 437.405
JUGNU 25 May 11:16:31 11:17:27 10° 166° (SSE) 11:18:29 437.505
QB50P1 25 May 11:19:25 11:23:05 29° 72° (ENE) 11:26:50 145.935-145.965
POLYITAN 1 25 May 11:20:15 11:23:59 30° 72° (ENE) 11:27:49 437.675
AAUSAT CUBESAT 2 25 May 11:29:41 11:33:06 24° 288° (WNW) 11:36:24 437.432
ANTELSAT 25 May 11:36:28 11:41:11 74° 259° (WSW) 11:45:53 437.575/2403.000
HO-68 25 May 11:40:31 11:46:34 30° 295° (WNW) 11:52:25 435.675
CUBEBUG 2 25 May 11:42:53 11:47:12 47° 286° (WNW) 11:51:20 437.445
50 SAT 25 May 11:50:16 11:53:34 27° 96° (E) 11:56:53 437.505
NANOSAT C BR1 25 May 11:50:51 11:55:04 70° 76° (ENE) 11:59:21 145.865
ZACube-1 25 May 11:52:48 11:57:04 58° 285° (WNW) 12:01:12 437.345
QB50P2 25 May 11:57:23 12:01:40 87° 78° (ENE) 12:06:00 145.880/145.840
UKube-1 25 May 11:58:26 12:02:47 65° 102° (ESE) 12:07:05 .
HUMSAT D 25 May 12:02:17 12:06:28 78° 101° (ESE) 12:10:34 437.325/437.525
DX 1 25 May 12:04:20 12:08:45 83° 102° (ESE) 12:13:08 434.975-435.025
ESTCUBE 1 25 May 12:07:08 12:10:45 24° 95° (E) 12:14:27 437.505/2401.250
DELFI C3 25 May 12:09:33 12:12:55 25° 288° (WNW) 12:16:11 145.870
POPSAT HIP 1 25 May 12:10:11 12:14:26 68° 259° (W) 12:18:44 437.405
Oscar 11 25 May 12:10:30 12:13:44 21° 290° (WNW) 12:16:52 145.826/435.025
TIGRISAT 25 May 12:10:49 12:15:03 32° 264° (W) 12:19:12 435.000
VELOX 1 25 May 12:11:13 12:15:32 46° 99° (E) 12:19:50 145.980
DUCHIFAT 1 25 May 12:13:44 12:17:57 63° 260° (W) 12:22:12 145.980
CUBEBUG 1 25 May 12:15:21 12:18:59 25° 95° (E) 12:22:43 437.445
CINEMA 3 25 May 12:17:51 12:19:33 12° 295° (WNW) 12:20:59 145.822/145.860
Cosmos 2504 25 May 12:21:36 12:29:19 37° 285° (WNW) 12:36:28 435.465 / 435.565
PCSat 25 May 12:31:12 12:36:09 36° 250° (WSW) 12:41:01 145.827
UNISAT 6 25 May 12:31:26 12:34:51 19° 267° (W) 12:38:06 437.425
GONETS M04 25 May 12:33:00 12:36:05 13° 80° (E) 12:39:57
UWE-3 25 May 12:35:32 12:38:16 16° 292° (WNW) 12:40:47 435.000/436.395/437.385
AISAT 25 May 12:42:03 12:46:33 74° 284° (WNW) 12:51:01 437.250
BUGSAT 1 25 May 12:45:40 12:49:30 37° 262° (W) 12:53:23 437.445
DANDE 25 May 12:50:16 12:53:44 15° 80° (E) 12:58:02 436.750
FUNcube-1 25 May 12:50:59 12:53:15 14° 293° (WNW) 12:55:18 145.935
QB50P1 25 May 12:55:48 12:58:59 20° 266° (W) 13:02:05 145.935-145.965
POLYITAN 1 25 May 12:56:48 12:59:58 19° 267° (W) 13:03:00 437.675
SO-50 25 May 12:58:38 13:03:02 32° 52° (NE) 13:07:26 436.795
SPROUT 25 May 13:01:35 13:04:54 22° 94° (E) 13:08:17 437.525
JUGNU 25 May 13:02:12 13:05:43 16° 176° (S) 13:09:15 437.505
RS-15 25 May 13:09:34 13:17:29 21° 331° (NNW) 13:25:12 29.354- 29.394
50 SAT 25 May 13:25:28 13:28:06 17° 290° (WNW) 13:30:36 437.505
CUSAT 1 25 May 13:30:17 13:36:45 45° 90° (E) 13:44:23 437.405
TISAT 1 25 May 13:31:38 13:35:31 34° 97° (E) 13:39:25 437.305
UKube-1 25 May 13:38:04 13:38:25 10° 294° (WNW) 13:38:30 .
ESTCUBE 1 25 May 13:43:44 13:47:36 27° 289° (WNW) 13:51:23 437.505/2401.250
VELOX 1 25 May 13:49:10 13:51:44 15° 293° (WNW) 13:54:06 145.980
CUBEBUG 1 25 May 13:51:36 13:55:17 25° 289° (WNW) 13:58:52 437.445
Oscar 19 25 May 13:57:16 14:02:18 53° 73° (ENE) 14:07:22 437.125/150
ITAMSAT 1 25 May 14:09:06 14:12:36 19° 67° (ENE) 14:16:17 435.822/435.867
SRMSAT 25 May 14:16:09 14:19:23 15° 173° (S) 14:22:40 437.500
GONETS M04 25 May 14:22:58 14:31:47 82° 95° (E) 14:40:40
DANDE 25 May 14:29:01 14:35:40 88° 278° (W) 14:43:58 436.750
Gurwin Techsat 1B 25 May 14:35:18 14:39:55 33° 70° (ENE) 14:44:39 435.225
SPROUT 25 May 14:37:16 14:40:58 27° 289° (WNW) 14:44:35 437.525
SO-50 25 May 14:39:17 14:43:30 28° 248° (WSW) 14:47:35 436.795
JUGNU 25 May 14:50:34 14:54:01 16° 186° (S) 14:57:24 437.505
Cosmos 2499 25 May 15:03:49 15:10:04 26° 87° (E) 15:16:16 435.465 / 435.565
TISAT 1 25 May 15:08:11 15:11:03 17° 291° (WNW) 15:13:46 437.305
ITUPSAT 1 25 May 15:08:30 15:13:15 61° 101° (E) 15:18:00 437.325
CUSAT 1 25 May 15:13:10 15:19:38 35° 290° (WNW) 15:26:52 437.405
BEESAT 25 May 15:17:19 15:22:06 79° 102° (ESE) 15:26:53 436.000
SWISSCUBE 25 May 15:25:32 15:30:20 78° 284° (WNW) 15:35:06 437.505
RS-15 25 May 15:31:35 15:36:16 13° 7° (N) 15:41:13 29.354- 29.394
HORYU 2 25 May 15:37:35 15:40:47 20° 69° (ENE) 15:44:07 437.375
Oscar 19 25 May 15:38:48 15:42:02 16° 269° (W) 15:44:59 437.125/150
ITAMSAT 1 25 May 15:46:52 15:51:48 45° 261° (W) 15:56:45 435.822/435.867
KKS-1 25 May 15:49:17 15:53:06 27° 96° (E) 15:56:57 437.445
O/OREOS (USA 219) 25 May 16:02:30 16:06:11 26° 103° (ESE) 16:09:58 437.305
SRMSAT 25 May 16:04:12 16:07:50 17° 183° (S) 16:11:28 437.500
AO-7 25 May 16:12:25 16:20:22 55° 68° (ENE) 16:28:26 29.400- 29.500
JAS-2 25 May 16:14:17 16:20:59 55° 74° (ENE) 16:26:58 435.910
Gurwin Techsat 1B 25 May 16:15:27 16:19:56 27° 265° (W) 16:24:20 435.225
DANDE 25 May 16:15:59 16:20:30 16° 301° (WNW) 16:24:58 436.750
GONETS M04 25 May 16:23:50 16:29:51 19° 295° (WNW) 16:35:24
ITUPSAT 1 25 May 16:48:29 16:50:41 13° 294° (WNW) 16:52:38 437.325
Cosmos 2499 25 May 16:54:47 17:02:54 55° 281° (W) 17:10:23 435.465 / 435.565
STARS 25 May 16:57:09 17:01:36 78° 283° (WNW) 17:06:00 437.465
MOZHAYETS 4 25 May 17:07:17 17:09:44 15° 91° (E) 17:12:25
HORYU 2 25 May 17:13:11 17:17:14 32° 263° (W) 17:21:16 437.375
KKS-1 25 May 17:26:02 17:29:38 23° 290° (WNW) 17:33:05 437.445
O/OREOS (USA 219) 25 May 17:41:46 17:45:34 25° 298° (WNW) 17:49:16 437.305
RS-15 25 May 17:44:18 17:54:07 32° 40° (NE) 18:04:34 29.354- 29.394
CUTE-I 25 May 17:49:53 17:52:37 15° 65° (ENE) 17:55:35 437.470
SRMSAT 25 May 17:54:09 17:56:16 12° 192° (SSW) 17:58:17 437.500
JAS-2 25 May 18:01:07 18:06:18 21° 266° (W) 18:10:51 435.910
AO-7 25 May 18:06:30 18:13:33 29° 265° (W) 18:20:25 29.400- 29.500
BEESAT 2 25 May 18:07:20 18:09:03 13° 110° (ESE) 18:10:58 435.950
Cubesat XI-IV 25 May 18:08:34 18:12:34 23° 68° (ENE) 18:16:43 437.490
YUBILEINY 25 May 18:14:24 18:19:31 17° 64° (ENE) 18:25:09 435.215
CUBESAT XI-V 25 May 18:42:18 18:43:54 12° 89° (E) 18:45:48 437.345
MOZHAYETS 4 25 May 18:42:53 18:47:15 44° 286° (WNW) 18:51:33
BEESAT 3 25 May 18:56:02 19:00:02 62° 117° (ESE) 19:04:06 437.485
STRAND 1 25 May 19:22:49 19:25:11 14° 90° (E) 19:27:52 437.568
AIST 2 25 May 19:23:22 19:26:51 26° 112° (ESE) 19:30:27 435.215
CUTE-I 25 May 19:26:58 19:32:13 63° 259° (W) 19:37:30 437.470
BEESAT 2 25 May 19:42:49 19:46:46 47° 303° (WNW) 19:50:47 435.950
Cubesat XI-IV 25 May 19:47:29 19:52:27 39° 262° (W) 19:57:24 437.490
RS-15 25 May 19:56:12 20:07:56 79° 243° (WSW) 20:20:05 29.354- 29.394
Cosmos 2491 25 May 20:07:37 20:16:05 57° 91° (E) 20:24:41 435.465 / 435.565
YUBILEINY 25 May 20:08:53 20:17:38 84° 264° (W) 20:26:19 435.215
DOVE 4 25 May 20:13:16 20:15:18 13° 65° (ENE) 20:17:40 437.250
CUBESAT XI-V 25 May 20:17:09 20:21:46 57° 285° (WNW) 20:26:22 437.345
HO-68 25 May 20:18:26 20:24:07 27° 64° (ENE) 20:29:59 435.675
BRITE-PL 25 May 20:29:57 20:34:39 44° 73° (ENE) 20:39:46 437.365/2234.400
BEESAT 3 25 May 20:36:41 20:38:29 12° 315° (NW) 20:40:07 437.485
GOMX 1 25 May 20:40:12 20:44:46 36° 71° (ENE) 20:49:39 467.674
PRISM 25 May 20:42:30 20:46:37 64° 285° (WNW) 20:50:44 437.425
AAUSAT CUBESAT 2 25 May 20:44:33 20:45:31 11° 68° (ENE) 20:46:43 437.432
STRAND 1 25 May 20:59:47 21:04:51 59° 286° (WNW) 21:09:54 437.568
AIST 2 25 May 21:01:45 21:05:23 26° 308° (NW) 21:08:59 435.215
M-CUBED/EXP-1 PRIME 25 May 21:06:24 21:09:43 87° 294° (WNW) 21:13:02 437.505
AUBIESAT-1 25 May 21:15:59 21:19:16 74° 289° (WNW) 21:22:35 437.475
CANX-2 25 May 21:18:59 21:23:11 60° 76° (ENE) 21:27:23 2200.000
CUTE 1.7 + AOD 2 25 May 21:22:45 21:26:57 60° 76° (ENE) 21:31:09 437.475
Oscar 11 25 May 21:26:53 21:29:32 17° 69° (ENE) 21:32:20 145.826/435.025
AIST 1 25 May 21:35:50 21:40:02 68° 95° (E) 21:44:17
CINEMA 3 25 May 21:36:16 21:40:55 43° 73° (ENE) 21:45:41 145.822/145.860
DOVE 4 25 May 21:47:24 21:52:25 72° 259° (W) 21:57:42 437.250
SEEDS 25 May 21:47:35 21:51:49 83° 257° (WSW) 21:56:04 437.485
UWE-3 25 May 21:52:09 21:55:54 25° 71° (ENE) 21:59:44 435.000/436.395/437.385
COMPASS 1 25 May 22:03:10 22:07:21 68° 259° (WSW) 22:11:31 437.405
HO-68 25 May 22:04:30 22:11:30 53° 259° (W) 22:18:30 435.675
FUNcube-1 25 May 22:05:59 22:09:44 26° 71° (ENE) 22:13:36 145.935
Cosmos 2491 25 May 22:06:07 22:13:30 28° 290° (WNW) 22:20:39 435.465 / 435.565
YUBILEINY 25 May 22:09:24 22:13:21 13° 280° (W) 22:16:33 435.215
BRITE-PL 25 May 22:09:58 22:13:30 19° 271° (W) 22:17:01 437.365/2234.400
RS-15 25 May 22:12:18 22:19:07 16° 258° (WSW) 22:24:55 29.354- 29.394
AAUSAT CUBESAT 2 25 May 22:16:38 22:20:43 54° 260° (W) 22:24:49 437.432
Cosmos 2504 25 May 22:16:53 22:24:03 66° 81° (E) 22:31:13 435.465 / 435.565
GOMX 1 25 May 22:18:57 22:23:00 23° 268° (W) 22:27:08 467.674
50 SAT 25 May 22:34:00 22:35:20 12° 68° (ENE) 22:36:52 437.505
CUBEBUG 2 25 May 22:37:07 22:41:53 85° 258° (WSW) 22:46:41 437.445
ZACube-1 25 May 22:45:00 22:49:35 75° 76° (ENE) 22:54:11 437.345
UKube-1 25 May 22:50:26 22:54:23 37° 72° (ENE) 22:58:24 .
HUMSAT D 25 May 22:50:59 22:54:56 36° 73° (ENE) 22:58:56 437.325/437.525
DELFI C3 25 May 22:53:06 22:57:05 63° 259° (W) 23:01:06 145.870
DX 1 25 May 22:56:54 23:01:04 48° 74° (ENE) 23:05:18 434.975-435.025
Oscar 11 25 May 23:01:25 23:05:27 37° 262° (W) 23:09:28 145.826/435.025
ESTCUBE 1 25 May 23:04:56 23:07:36 16° 68° (ENE) 23:10:26 437.505/2401.250
VELOX 1 25 May 23:06:12 23:09:58 28° 71° (ENE) 23:13:49 145.980
CUBEBUG 1 25 May 23:09:48 23:12:13 15° 68° (ENE) 23:14:50 437.445
CINEMA 3 25 May 23:14:48 23:18:19 18° 269° (W) 23:21:41 145.822/145.860
UWE-3 25 May 23:28:13 23:32:19 29° 265° (W) 23:36:21 435.000/436.395/437.385
ANTELSAT 25 May 23:32:16 23:35:59 27° 95° (E) 23:39:42 437.575/2403.000
DANDE 25 May 23:36:25 23:38:09 11° 55° (NE) 23:40:22 436.750
AISAT 25 May 23:36:37 23:41:01 68° 76° (ENE) 23:45:28 437.250
NANOSAT C BR1 25 May 23:40:24 23:42:35 14° 91° (E) 23:44:59 145.865
FUNcube-1 25 May 23:42:08 23:46:00 26° 265° (W) 23:49:47 145.935
QB50P2 25 May 23:46:53 23:49:43 18° 93° (E) 23:52:41 145.880/145.840
SPROUT 25 May 23:54:32 23:56:13 12° 67° (ENE) 23:58:08 437.525
POPSAT HIP 1 25 May 23:59:00 00:02:27 24° 95° (E) 00:05:57 437.405
DUCHIFAT 1 26 May 00:01:59 00:05:30 25° 95° (E) 00:09:03 145.980
TIGRISAT 26 May 00:05:16 00:09:38 68° 101° (E) 00:13:53 435.000
50 SAT 26 May 00:05:49 00:09:41 46° 261° (W) 00:13:33 437.505
Cosmos 2504 26 May 00:12:15 00:16:48 17° 276° (W) 00:20:56 435.465 / 435.565
CUSAT 1 26 May 00:14:02 00:19:54 27° 66° (ENE) 00:24:52 437.405
TISAT 1 26 May 00:21:43 00:24:34 18° 69° (ENE) 00:27:35 437.305
UNISAT 6 26 May 00:25:08 00:29:30 67° 284° (WNW) 00:33:45 437.425
UKube-1 26 May 00:27:56 00:30:42 16° 267° (W) 00:33:16 .
HUMSAT D 26 May 00:28:04 00:30:50 16° 268° (W) 00:33:26 437.325/437.525
BUGSAT 1 26 May 00:30:40 00:34:38 38° 98° (E) 00:38:36 437.445
DX 1 26 May 00:35:43 00:37:39 12° 269° (W) 00:39:21 434.975-435.025
ISS 26 May 00:36:45 00:39:58 73° 318° (NW) 00:43:13 145.825
GONETS M04 26 May 00:37:40 00:45:25 35° 72° (ENE) 00:53:16
ESTCUBE 1 26 May 00:39:56 00:44:10 41° 262° (W) 00:48:24 437.505/2401.250
QB50P1 26 May 00:42:33 00:46:52 84° 101° (ESE) 00:51:07 145.935-145.965
VELOX 1 26 May 00:43:04 00:46:33 22° 266° (W) 00:49:55 145.980
POLYITAN 1 26 May 00:43:50 00:48:09 88° 102° (ESE) 00:52:24 437.675
CUBEBUG 1 26 May 00:44:09 00:48:16 41° 262° (W) 00:52:25 437.445
ANTELSAT 26 May 01:09:17 01:12:39 21° 290° (WNW) 01:15:52 437.575/2403.000
NANOSAT C BR1 26 May 01:14:39 01:18:40 40° 287° (WNW) 01:22:37 145.865
DANDE 26 May 01:15:39 01:23:29 70° 78° (ENE) 01:29:35 436.750
QB50P2 26 May 01:21:52 01:25:43 32° 288° (WNW) 01:29:28 145.880/145.840
PCSat 26 May 01:26:19 01:31:24 44° 111° (ESE) 01:36:34 145.827
SPROUT 26 May 01:27:42 01:31:54 51° 261° (W) 01:36:09 437.525
POPSAT HIP 1 26 May 01:34:46 01:38:16 24° 289° (WNW) 01:41:39 437.405
DUCHIFAT 1 26 May 01:37:49 01:41:13 23° 290° (WNW) 01:44:30 145.980
CUSAT 1 26 May 01:56:18 02:02:56 42° 271° (W) 02:08:04 437.405
TISAT 1 26 May 01:56:21 02:00:09 31° 263° (W) 02:03:57 437.305
VERMONT LUNAR 26 May 02:02:55 02:05:27 22° 147° (SSE) 02:08:01 437.305
BUGSAT 1 26 May 02:07:08 02:09:50 16° 291° (WNW) 02:12:19 437.445
ITUPSAT 1 26 May 02:12:23 02:16:57 50° 74° (ENE) 02:21:34 437.325
Oscar 19 26 May 02:12:36 02:16:36 23° 94° (E) 02:20:44 437.125/150
O/OREOS (USA 219) 26 May 02:14:56 02:18:51 30° 63° (ENE) 02:22:49 437.305
ISS 26 May 02:15:44 02:16:54 11° 336° (NNW) 02:18:01 145.825
BEESAT 26 May 02:20:44 02:25:25 63° 75° (ENE) 02:30:08 436.000
SWISSCUBE 26 May 02:28:59 02:33:43 85° 77° (ENE) 02:38:29 437.505
GONETS M04 26 May 02:34:13 02:42:28 45° 270° (W) 02:50:31
KKS-1 26 May 02:45:17 02:48:18 19° 69° (ENE) 02:51:29 437.445
Cosmos 2499 26 May 02:49:31 02:56:05 41° 76° (ENE) 03:02:48 435.465 / 435.565
Gurwin Techsat 1B 26 May 02:55:27 02:58:35 16° 91° (E) 03:01:57 435.225
DANDE 26 May 03:00:46 03:05:39 18° 279° (W) 03:09:36 436.750
PCSat 26 May 03:10:43 03:15:03 23° 308° (NW) 03:19:19 145.827
SO-50 26 May 03:11:15 03:14:23 19° 110° (ESE) 03:17:46 436.795
BEESAT 3 26 May 03:18:29 03:21:02 16° 48° (NE) 03:23:42 437.485
VERMONT LUNAR 26 May 03:39:15 03:42:28 68° 341° (NNW) 03:45:40 437.305
STARS 26 May 03:50:48 03:55:10 62° 75° (ENE) 03:59:36 437.465
Oscar 19 26 May 03:51:23 03:56:03 35° 289° (WNW) 04:00:39 437.125/150
ITUPSAT 1 26 May 03:52:34 03:55:11 14° 269° (W) 03:57:34 437.325
PHONESAT 2.4 26 May 03:54:03 03:57:24 46° 152° (SSE) 04:00:44 2401.200-2431.200
O/OREOS (USA 219) 26 May 03:54:45 03:58:07 20° 258° (WSW) 04:01:21 437.305
ITAMSAT 1 26 May 04:02:23 04:07:38 82° 103° (ESE) 04:12:52 435.822/435.867
BEESAT 26 May 04:02:24 04:03:46 11° 271° (W) 04:04:49 436.000
BEESAT 2 26 May 04:04:47 04:08:38 39° 56° (NE) 04:12:26 435.950
MOZHAYETS 4 26 May 04:08:29 04:09:14 10° 66° (ENE) 04:10:17
AO-7 26 May 04:18:48 04:24:22 20° 92° (E) 04:30:22 29.400- 29.500
KKS-1 26 May 04:20:35 04:24:43 35° 263° (W) 04:28:49 437.445
Gurwin Techsat 1B 26 May 04:33:46 04:38:57 53° 287° (WNW) 04:44:05 435.225
Cosmos 2499 26 May 04:43:06 04:49:02 29° 272° (W) 04:54:51 435.465 / 435.565
SO-50 26 May 04:50:12 04:54:38 42° 305° (NW) 04:59:13 436.795
BEESAT 3 26 May 04:55:25 04:59:15 40° 245° (WSW) 05:03:00 437.485
HORYU 2 26 May 05:06:54 05:11:17 58° 100° (E) 05:15:38 437.375
JAS-2 26 May 05:11:35 05:16:40 57° 100° (E) 05:21:58 435.910
VERMONT LUNAR 26 May 05:17:01 05:19:56 32° 357° (N) 05:22:52 437.305
AIST 2 26 May 05:25:28 05:29:41 84° 60° (ENE) 05:33:49 435.215
PHONESAT 2.4 26 May 05:32:10 05:35:32 46° 347° (NNW) 05:38:54 2401.200-2431.200
MOZHAYETS 4 26 May 05:41:24 05:45:58 68° 259° (W) 05:50:33
BEESAT 2 26 May 05:44:00 05:46:25 15° 250° (WSW) 05:48:39 435.950
ITAMSAT 1 26 May 05:44:58 05:46:32 11° 297° (WNW) 05:47:46 435.822/435.867
AO-7 26 May 06:09:38 06:17:59 75° 290° (WNW) 06:26:19 29.400- 29.500
Cosmos 2491 26 May 06:22:43 06:29:17 24° 68° (ENE) 06:36:10 435.465 / 435.565
Cubesat XI-IV 26 May 06:31:03 06:31:54 11° 88° (E) 06:33:11 437.490
STRAND 1 26 May 06:36:04 06:38:52 16° 66° (ENE) 06:41:55 437.568
HORYU 2 26 May 06:45:54 06:47:29 11° 294° (WNW) 06:48:48 437.375
VERMONT LUNAR 26 May 06:54:25 06:57:31 46° 14° (NNE) 07:00:36 437.305
JAS-2 26 May 06:58:38 07:01:27 14° 294° (WNW) 07:04:04 435.910
ISS 26 May 07:06:52 07:09:50 32° 35° (NE) 07:12:49 145.825
PHONESAT 2.4 26 May 07:10:49 07:14:02 35° 4° (N) 07:17:16 2401.200-2431.200
YUBILEINY 26 May 07:12:03 07:18:07 22° 84° (E) 07:24:35 435.215
CUBESAT XI-V 26 May 07:17:16 07:21:52 84° 258° (WSW) 07:26:31 437.345
PRISM 26 May 07:29:28 07:33:29 59° 75° (ENE) 07:37:31 437.425
CUTE-I 26 May 07:47:01 07:52:22 67° 101° (ESE) 07:57:43 437.470
AIST 1 26 May 07:47:46 07:49:42 13° 71° (ENE) 07:51:51
M-CUBED/EXP-1 PRIME 26 May 07:51:13 07:55:34 76° 72° (ENE) 07:59:35 437.505
AUBIESAT-1 26 May 08:00:20 08:04:38 84° 73° (ENE) 08:08:37 437.475
AO-7 26 May 08:05:12 08:09:37 15° 306° (NW) 08:13:33 29.400- 29.500
Cubesat XI-IV 26 May 08:07:19 08:12:42 78° 285° (WNW) 08:18:04 437.490
RS-15 26 May 08:08:36 08:15:06 19° 103° (ESE) 08:22:25 29.354- 29.394
STRAND 1 26 May 08:12:40 08:17:40 56° 260° (W) 08:22:41 437.568
Cosmos 2491 26 May 08:18:14 08:26:58 66° 267° (W) 08:35:36 435.465 / 435.565
VERMONT LUNAR 26 May 08:31:41 08:34:42 39° 209° (SSW) 08:37:42 437.305
BRITE-PL 26 May 08:38:44 08:42:49 21° 91° (E) 08:46:57 437.365/2234.400
ISS 26 May 08:43:37 08:46:08 20° 230° (SW) 08:48:34 145.825
GOMX 1 26 May 08:46:55 08:49:39 15° 88° (E) 08:52:35 467.674
PHONESAT 2.4 26 May 08:48:58 08:52:26 78° 20° (NNE) 08:55:54 2401.200-2431.200
YUBILEINY 26 May 09:05:34 09:14:18 67° 280° (W) 09:23:00 435.215
CANX-2 26 May 09:09:10 09:10:57 13° 91° (E) 09:12:58 2200.000
CUTE 1.7 + AOD 2 26 May 09:12:53 09:14:38 13° 90° (E) 09:16:37 437.475
AIST 1 26 May 09:23:29 09:27:41 44° 267° (W) 09:31:50
CUTE-I 26 May 09:29:03 09:31:56 14° 295° (WNW) 09:34:34 437.470
HO-68 26 May 09:35:39 09:42:03 36° 97° (E) 09:48:31 435.675
SEEDS 26 May 09:35:50 09:38:49 20° 93° (E) 09:41:56 437.485
CINEMA 3 26 May 09:36:48 09:38:31 12° 88° (E) 09:40:30 145.822/145.860
COMPASS 1 26 May 09:50:14 09:53:29 23° 94° (E) 09:56:51 437.405
